When you browse on this site, cookies collect data to enhance your experience and personalize the content and advertising you see.
Visit our Privacy Policy to learn more. By continuing to use the site, you agree to this use of cookies and data.
  • In Portugal
  • List of Countries
  • For 7 days
  • Water Temperature
  • Satellite Maps
  • Weather Map
  • Weather Widgets
  • user-avatar
    Login

    Hourly Weather Gacnik

    Today, 10 December, Monday

    Time Temperature Precipitation Wind Pressure Humidity
    00:00 +4°C° 0.2 mm 4 mps 731 mmHg 91%
    01:00 +3°C° 0 mm 3 mps 731 mmHg 93%
    02:00 +3°C° 0.3 mm 4 mps 731 mmHg 88%
    03:00 +2°C° 0.3 mm 5 mps 732 mmHg 83%
    04:00 +2°C° 0.3 mm 6 mps 733 mmHg 78%
    05:00 +2°C° 0 mm 6 mps 733 mmHg 77%
    06:00 +2°C° 0 mm 6 mps 734 mmHg 77%
    07:00 +2°C° 0 mm 5 mps 734 mmHg 76%
    08:00 +2°C° 0 mm 5 mps 735 mmHg 75%
    09:00 +2°C° 0 mm 5 mps 735 mmHg 73%
    10:00 +2°C° 0 mm 5 mps 736 mmHg 72%
    11:00 +2°C° 0.1 mm 6 mps 736 mmHg 69%
    12:00 +2°C° 0.1 mm 6 mps 736 mmHg 67%
    13:00 +3°C° 0.1 mm 6 mps 736 mmHg 64%
    14:00 +2°C° 0 mm 5 mps 737 mmHg 67%
    15:00 +2°C° 0 mm 5 mps 737 mmHg 70%
    16:00 +1°C° 0 mm 4 mps 737 mmHg 72%
    17:00 +1°C° 0 mm 4 mps 737 mmHg 75%
    18:00 0°C° 0 mm 4 mps 737 mmHg 77%
    19:00 0°C° 0 mm 4 mps 737 mmHg 80%
    20:00 0°C° 0 mm 4 mps 737 mmHg 81%
    21:00 0°C° 0 mm 4 mps 737 mmHg 83%
    22:00 0°C° 0 mm 4 mps 737 mmHg 84%
    23:00 0°C° 0.2 mm 4 mps 738 mmHg 84%

    Tomorrow, 11 December, Tuesday

    Time Temperature Precipitation Wind Pressure Humidity
    00:00 0°C° 0.2 mm 4 mps 738 mmHg 84%
    01:00 +1°C° 0.2 mm 3 mps 738 mmHg 84%
    02:00 +1°C° 0.2 mm 3 mps 738 mmHg 86%
    03:00 +1°C° 0.2 mm 3 mps 738 mmHg 87%
    04:00 +2°C° 0.2 mm 2 mps 738 mmHg 89%
    05:00 +2°C° 0.1 mm 2 mps 738 mmHg 90%
    06:00 +2°C° 0.1 mm 2 mps 738 mmHg 91%
    07:00 +2°C° 0.1 mm 1 mps 739 mmHg 92%
    08:00 +3°C° 0 mm 1 mps 739 mmHg 91%
    09:00 +3°C° 0 mm 1 mps 740 mmHg 91%
    10:00 +2°C° 0 mm 2 mps 740 mmHg 90%
    11:00 +2°C° 0 mm 2 mps 741 mmHg 88%
    12:00 +3°C° 0 mm 2 mps 741 mmHg 87%
    13:00 +3°C° 0 mm 2 mps 742 mmHg 86%
    14:00 +3°C° 0 mm 2 mps 742 mmHg 86%
    15:00 +2°C° 0 mm 2 mps 743 mmHg 87%
    16:00 +1°C° 0 mm 3 mps 743 mmHg 88%
    17:00 +1°C° 0 mm 3 mps 744 mmHg 88%
    18:00 +1°C° 0 mm 3 mps 744 mmHg 87%
    19:00 0°C° 0 mm 3 mps 745 mmHg 87%
    20:00 +1°C° 0 mm 2 mps 745 mmHg 89%
    21:00 +1°C° 0 mm 2 mps 746 mmHg 90%
    22:00 -1°C° 0 mm 2 mps 746 mmHg 92%
    23:00 -1°C° 0 mm 2 mps 747 mmHg 92%

    Day after tomorrow, 12 December, Wednesday

    Time Temperature Precipitation Wind Pressure Humidity
    00:00 -1°C° 0 mm 2 mps 747 mmHg 92%
    01:00 +1°C° 0 mm 1 mps 747 mmHg 93%
    02:00 +1°C° 0 mm 1 mps 748 mmHg 93%
    03:00 +1°C° 0 mm 1 mps 748 mmHg 93%
    04:00 +1°C° 0 mm 1 mps 748 mmHg 93%
    05:00 +1°C° 0 mm 1 mps 749 mmHg 92%
    06:00 +1°C° 0 mm 1 mps 749 mmHg 92%
    07:00 +1°C° 0 mm 1 mps 749 mmHg 92%
    08:00 +1°C° 0.1 mm 1 mps 750 mmHg 90%
    09:00 +2°C° 0.1 mm 1 mps 750 mmHg 89%
    10:00 +2°C° 0.1 mm 1 mps 750 mmHg 87%
    11:00 +2°C° 0.2 mm 1 mps 751 mmHg 86%
    12:00 +3°C° 0.2 mm 1 mps 751 mmHg 86%
    13:00 +3°C° 0.2 mm 1 mps 751 mmHg 85%
    14:00 +2°C° 0.1 mm 1 mps 751 mmHg 88%
    15:00 +2°C° 0.1 mm 1 mps 751 mmHg 90%
    16:00 +1°C° 0.1 mm 1 mps 751 mmHg 93%
    17:00 +1°C° 0 mm 1 mps 751 mmHg 93%
    18:00 +1°C° 0 mm 1 mps 751 mmHg 94%
    19:00 +1°C° 0 mm 1 mps 751 mmHg 94%
    20:00 +1°C° 0 mm 1 mps 752 mmHg 94%
    21:00 +1°C° 0 mm 1 mps 752 mmHg 94%
    22:00 +1°C° 0 mm 1 mps 752 mmHg 94%
    23:00 +1°C° 0 mm 1 mps 752 mmHg 94%

    13 December, Thursday

    Time Temperature Precipitation Wind Pressure Humidity
    00:00 0°C° 0 mm 1 mps 752 mmHg 94%
    01:00 0°C° 0 mm 1 mps 752 mmHg 94%
    02:00 -2°C° 0 mm 2 mps 752 mmHg 94%
    03:00 -2°C° 0 mm 2 mps 752 mmHg 94%
    04:00 -2°C° 0 mm 2 mps 752 mmHg 94%
    05:00 -2°C° 0 mm 2 mps 752 mmHg 93%
    06:00 -2°C° 0 mm 2 mps 752 mmHg 92%
    07:00 -1°C° 0 mm 2 mps 752 mmHg 92%
    08:00 -1°C° 0 mm 2 mps 752 mmHg 90%
    09:00 -1°C° 0 mm 2 mps 752 mmHg 89%
    10:00 -1°C° 0 mm 2 mps 752 mmHg 87%
    11:00 -1°C° 0 mm 2 mps 752 mmHg 85%
    12:00 +1°C° 0 mm 2 mps 751 mmHg 83%
    13:00 +1°C° 0 mm 2 mps 751 mmHg 81%
    14:00 +1°C° 0 mm 1 mps 751 mmHg 83%
    15:00 +1°C° 0 mm 1 mps 751 mmHg 85%
    16:00 +1°C° 0 mm 1 mps 751 mmHg 88%
    17:00 0°C° 0 mm 1 mps 751 mmHg 88%
    18:00 0°C° 0 mm 1 mps 751 mmHg 89%
    19:00 0°C° 0 mm 1 mps 751 mmHg 90%
    20:00 0°C° 0 mm 1 mps 752 mmHg 89%
    21:00 0°C° 0 mm 1 mps 752 mmHg 89%
    22:00 -2°C° 0 mm 2 mps 752 mmHg 88%
    23:00 0°C° 0 mm 1 mps 752 mmHg 88%

    14 December, Friday

    Time Temperature Precipitation Wind Pressure Humidity
    00:00 0°C° 0 mm 1 mps 752 mmHg 87%
    01:00 0°C° 0 mm 1 mps 752 mmHg 87%
    02:00 -1°C° 0 mm 1 mps 753 mmHg 87%
    03:00 -1°C° 0 mm 1 mps 753 mmHg 88%
    04:00 -1°C° 0 mm 1 mps 753 mmHg 88%
    05:00 -1°C° 0 mm 1 mps 753 mmHg 88%
    06:00 -1°C° 0 mm 1 mps 753 mmHg 89%
    07:00 -1°C° 0 mm 1 mps 754 mmHg 89%
    08:00 -1°C° 0 mm 1 mps 754 mmHg 88%
    09:00 -2°C° 0 mm 2 mps 755 mmHg 86%
    10:00 -2°C° 0 mm 2 mps 755 mmHg 84%
    11:00 -2°C° 0 mm 2 mps 755 mmHg 83%
    12:00 +1°C° 0 mm 1 mps 755 mmHg 82%
    13:00 +1°C° 0 mm 1 mps 756 mmHg 81%
    14:00 +1°C° 0 mm 1 mps 756 mmHg 84%
    15:00 0°C° 0 mm 1 mps 756 mmHg 87%
    16:00 0°C° 0 mm 1 mps 756 mmHg 89%
    17:00 0°C° 0 mm 1 mps 757 mmHg 90%
    18:00 -2°C° 0 mm 2 mps 757 mmHg 91%
    19:00 -2°C° 0 mm 2 mps 757 mmHg 91%
    20:00 -2°C° 0 mm 2 mps 758 mmHg 92%
    21:00 -2°C° 0 mm 2 mps 758 mmHg 92%
    22:00 -2°C° 0 mm 2 mps 758 mmHg 92%
    23:00 -2°C° 0 mm 2 mps 758 mmHg 92%

    15 December, Saturday

    Time Temperature Precipitation Wind Pressure Humidity
    00:00 -2°C° 0 mm 2 mps 759 mmHg 92%
    01:00 0°C° 0 mm 1 mps 759 mmHg 92%
    02:00 0°C° 0 mm 1 mps 759 mmHg 92%
    03:00 -3°C° 0 mm 2 mps 759 mmHg 92%
    04:00 -3°C° 0 mm 2 mps 759 mmHg 92%
    05:00 -2°C° 0 mm 2 mps 759 mmHg 92%
    06:00 -2°C° 0 mm 2 mps 760 mmHg 92%
    07:00 -2°C° 0 mm 2 mps 760 mmHg 92%
    08:00 -2°C° 0 mm 2 mps 760 mmHg 90%
    09:00 -2°C° 0 mm 2 mps 760 mmHg 89%
    10:00 -2°C° 0 mm 2 mps 761 mmHg 88%
    11:00 -2°C° 0 mm 2 mps 761 mmHg 85%
    12:00 -2°C° 0 mm 2 mps 761 mmHg 82%
    13:00 -1°C° 0 mm 2 mps 761 mmHg 79%
    14:00 -2°C° 0 mm 2 mps 761 mmHg 82%
    15:00 -2°C° 0 mm 2 mps 761 mmHg 84%
    16:00 -3°C° 0 mm 2 mps 761 mmHg 87%
    17:00 -3°C° 0 mm 2 mps 761 mmHg 87%
    18:00 -3°C° 0 mm 2 mps 761 mmHg 87%
    19:00 -4°C° 0 mm 3 mps 762 mmHg 88%
    20:00 -4°C° 0 mm 3 mps 761 mmHg 87%
    21:00 -4°C° 0 mm 3 mps 761 mmHg 87%
    22:00 -4°C° 0 mm 3 mps 761 mmHg 86%
    23:00 -4°C° 0 mm 3 mps 761 mmHg 85%
    Show more